Location: Banios
(43.0451°N, 0.2335°E)
Time: 13:33:34
(UTC+00:00)

USA 215 - Pass Details

Date: 25 January 2021
Orbit: 1103 x 1105 km, 123.0° (Epoch: 14 February)

Event Time Altitude Azimuth Distance (km) Brightness Sun altitude
Rises 04:17:18 0° 51° (NE) 3,926 6.9 -33.5°
Reaches altitude 10° 04:20:00 10° 42° (NE) 2,967 6.0 -33.0°
Enters shadow 04:24:53 33° 356° (N) 1,760 4.2 -32.1°
